CST,Max TemperatureF,Mean TemperatureF,Min TemperatureF,Max Dew PointF,MeanDew PointF,Min DewpointF,Max Humidity, Mean Humidity, Min Humidity, Max Sea Level PressureIn, Mean Sea Level PressureIn, Min Sea Level PressureIn, Max VisibilityMiles, Mean VisibilityMiles, Min VisibilityMiles, Max Wind SpeedMPH, Mean Wind SpeedMPH, Max Gust SpeedMPH,PrecipitationIn, CloudCover, Events, WindDirDegrees
2011-12-1,71,59,46,55,51,42,86,73,59,30.30,30.22,30.15,10,9,2,21,10,25,0.00,0,,94
2011-12-2,73,63,52,56,46,22,86,51,16,30.35,30.29,30.23,10,10,4,17,10,23,0.00,0,,101
2011-12-3,80,70,59,65,60,55,90,74,58,30.19,30.13,30.06,10,10,8,26,14,35,T,5,,114
2011-12-4,74,71,67,68,67,64,90,85,79,30.08,29.98,29.92,10,9,2,20,10,25,0.06,7,Rain,146
2011-12-5,72,61,50,68,56,43,93,85,77,30.13,29.97,29.86,10,8,2,20,13,25,0.21,8,Rain,309
2011-12-6,50,44,37,43,38,28,86,78,70,30.30,30.21,30.14,10,10,7,20,13,24,0.01,7,,331
2011-12-7,51,42,32,30,26,24,76,56,36,30.42,30.35,30.31,10,10,10,18,10,25,0.00,1,,328
2011-12-8,54,42,29,37,32,26,92,71,50,30.38,30.29,30.22,10,10,8,13,6,16,0.00,0,,76
2011-12-9,62,54,46,43,38,30,77,55,32,30.41,30.27,30.19,10,10,8,15,8,21,0.00,7,,66
2011-12-10,61,53,45,37,34,31,70,51,32,30.50,30.44,30.40,10,10,10,21,10,26,0.00,0,,29
2011-12-11,59,52,44,34,31,25,65,47,28,30.44,30.36,30.29,10,10,10,16,9,20,0.00,3,,56
2011-12-12,67,56,44,55,41,30,84,59,34,30.32,30.28,30.24,10,10,10,14,8,17,0.00,5,,91
2011-12-13,67,62,56,60,56,51,93,83,72,30.33,30.28,30.22,10,5,0,20,11,26,0.00,7,Fog,96
2011-12-14,74,67,59,65,62,57,100,87,73,30.21,30.13,30.06,10,2,0,15,11,21,0.00,8,Fog,112
2011-12-15,82,74,66,68,65,64,93,76,58,30.10,30.06,30.01,10,5,0,16,7,24,0.01,6,Fog,117
2011-12-16,71,62,53,68,59,48,97,85,73,30.33,30.17,30.05,10,6,0,18,11,25,0.20,8,Fog-Rain,16
2011-12-17,66,58,50,48,39,31,89,59,28,30.43,30.38,30.33,10,10,10,18,10,26,0.00,4,,12
2011-12-18,66,55,43,47,37,27,76,50,24,30.41,30.33,30.19,10,9,4,16,7,24,0.00,0,,91
2011-12-19,76,66,55,65,57,48,93,79,64,30.16,30.01,29.91,10,9,3,23,14,29,0.00,5,,116
2011-12-20,70,60,50,67,60,43,90,79,67,30.00,29.91,29.85,10,7,0,25,9,32,1.69,7,Fog-Rain,222
2011-12-21,64,54,43,50,43,38,82,63,43,30.07,29.97,29.91,10,10,10,10,5,13,0.01,4,,11
2011-12-22,62,57,52,56,53,48,93,81,69,30.18,29.99,29.79,10,8,2,37,7,48,1.17,8,Rain-Thunderstorm,15
2011-12-23,61,57,52,51,48,44,89,78,67,30.32,30.27,30.19,10,10,9,17,10,28,0.00,8,,17
2011-12-24,52,49,46,45,42,40,93,82,71,30.35,30.29,30.24,10,8,1,22,12,29,0.55,8,Rain,31
2011-12-25,55,51,46,52,47,43,93,88,83,30.30,30.26,30.24,10,7,2,18,11,23,0.06,8,Rain,359
2011-12-26,53,47,41,49,46,39,93,85,77,30.23,30.14,30.06,10,7,1,15,6,20,0.01,6,Rain,273
2011-12-27,63,49,34,41,37,34,100,70,39,30.24,30.16,30.12,10,5,0,16,6,20,0.00,0,Fog,293
2011-12-28,66,51,35,49,42,34,92,72,52,30.22,30.14,30.06,10,8,2,20,5,20,0.00,0,,123
2011-12-29,73,59,45,59,49,39,100,72,43,30.06,30.01,29.94,10,3,0,17,7,23,0.00,1,Fog,120
2011-12-30,77,59,40,61,49,40,100,75,50,30.07,29.99,29.94,10,4,0,16,5,21,0.01,1,Fog,231
2011-12-31,80,67,53,70,63,54,100,84,67,30.12,30.05,30.00,9,2,0,18,7,24,0.02,8,Fog,169